sat.trackr.live / text

‹ back to catalog

STARLINK-33837

NORAD 63501 · 2025-071J

PAYLOAD ACTIVE UNKNOWN

§ Identity

Operator
Country
US
Launch date
2025-04-07
Launch site
AFWTR
Launch vehicle
Mass (kg)
RCS (m²)

Purposes: comms

External: N2YO · Heavens-Above · Gunter

§ Orbital elements

Epoch: 2026-05-25T03:47:49.845120Z

Period
94.11 min
Inclination
53.1564°
Eccentricity
0.0001110
Mean motion
15.30190790 rev/d
Perigee alt
474.5 km
Apogee alt
476.0 km
Semi-major
6,853.4 km
B*
7.1884e-4
RAAN
145.0147°
Arg perigee
95.6897°
Mean anomaly
264.4231°
Rev number
6,441

§ Raw data

STARLINK-338371 63501U 25071J   26145.15821580  .00020985  00000+0  71884-3 0  99922 63501  53.1564 145.0147 0001110  95.6897 264.4231 15.30190790 64412

JSON: /api/v1/satellites/63501 · /tle

For live sub-satellite position, see the globe view (requires WebGL).

§ Visibility from observer

Set your observer location to see the next 7 days of passes ≥ 10°. The values pass through the URL so the page stays shareable.

No JS? Fill the form by hand. The geolocation button needs JavaScript.